Weather History for Monticello, AR

Change the Weather History Date:

Wednesday, February 15, 2012

  Actual Average Record
Temperature  
Mean Temperature 50 °F -  
Max Temperature 61 °F 60 °F 78 °F (1954)
Min Temperature 39 °F 37 °F 21 °F (1963)
Degree Days  
Heating Degree Days 15    
Moisture  
Dew Point 48 °F    
Average Humidity 92    
Maximum Humidity 100    
Minimum Humidity 67    
Precipitation  
Precipitation 0.13 in - - ()
Sea Level Pressure  
Sea Level Pressure 30.01 in    
Wind  
Wind Speed 3 mph (ESE)    
Max Wind Speed 10 mph    
Max Gust Speed -    
Visibility 4 miles    
Events Rain , Thunderstorm    
Averages and records for this station are not official NWS values.
T = Trace of Precipitation, MM = Missing Value Source: NWS Daily Summary

Daily Weather History Graph

Daily Weather History Graph

Search for Another Location

Airport:

Trip Planner

Search our weather history database for the weather conditions in past years. The results will help you decide how hot, cold, wet, or windy it might be!

Date:

Astronomy

Feb. 15, 2012 Rise Set
Actual Time 6:51 AM CST 5:51 PM CST
Civil Twilight 6:26 AM CST 6:16 PM CST
Nautical Twilight 5:57 AM CST 6:45 PM CST
Astronomical Twilight 5:28 AM CST 7:14 PM CST
Moon 1:36 AM CST (2/15) 11:55 AM CST (2/15)
Length of Visible Light 11h 50m
Length of Day
10h 59m
Last Quarter, 38% of the Moon is Illuminated
Feb 15
Last Quarter
Feb 21
New
Feb 29
First Quarter
Mar 8
Full
Mar 14
Last Quarter

Hourly Weather History & Observations

Time (CST) Temp. Windchill Dew Point Humidity Pressure Visibility Wind Dir Wind Speed Gust Speed Precip Events Conditions
12:07 AM 42.8 °F 39.3 °F 41.0 °F 93% 30.07 in 3.0 mi East 5.8 mph - N/A   Overcast
12:53 AM 43.0 °F 40.3 °F 41.0 °F 93% 30.07 in 3.0 mi East 4.6 mph - N/A   Overcast
1:53 AM 43.0 °F 39.5 °F 41.0 °F 93% 30.06 in 4.0 mi East 5.8 mph - N/A   Overcast
2:51 AM 42.8 °F - 41.0 °F 93% 30.07 in 7.0 mi Calm Calm - N/A   Scattered Clouds
2:53 AM 43.0 °F - 41.0 °F 93% 30.07 in 7.0 mi Calm Calm - N/A   Partly Cloudy
3:38 AM 41.0 °F - 39.2 °F 93% 30.07 in 1.8 mi Calm Calm - N/A   Partly Cloudy
3:53 AM 39.9 °F - 39.0 °F 97% 30.07 in 2.5 mi Calm Calm - N/A   Partly Cloudy
4:07 AM 39.2 °F 37.0 °F 37.4 °F 93% 30.06 in 3.0 mi East 3.5 mph - N/A   Clear
4:23 AM 39.2 °F 37.0 °F 37.4 °F 93% 30.06 in 2.5 mi East 3.5 mph - N/A   Clear
4:37 AM 39.2 °F - 39.2 °F 100% 30.06 in 3.0 mi Calm Calm - N/A   Partly Cloudy
4:53 AM 41.0 °F - 39.9 °F 96% 30.07 in 2.5 mi Calm Calm - N/A   Mostly Cloudy
5:06 AM 39.2 °F 35.9 °F 37.4 °F 93% 30.06 in 1.8 mi East 4.6 mph - N/A   Overcast
5:15 AM 41.0 °F 38.0 °F 39.2 °F 93% 30.06 in 3.0 mi East 4.6 mph - N/A   Overcast
5:27 AM 39.2 °F 35.9 °F 39.2 °F 100% 30.05 in 2.5 mi East 4.6 mph - N/A   Mostly Cloudy
5:42 AM 39.2 °F 35.0 °F 37.4 °F 93% 30.05 in 1.8 mi East 5.8 mph - N/A   Mostly Cloudy
5:53 AM 39.9 °F 35.8 °F 37.9 °F 93% 30.05 in 1.5 mi East 5.8 mph - N/A   Mostly Cloudy
6:15 AM 41.0 °F 38.0 °F 39.2 °F 93% 30.05 in 2.5 mi East 4.6 mph - N/A   Overcast
6:25 AM 41.0 °F 38.0 °F 39.2 °F 93% 30.05 in 3.0 mi East 4.6 mph - N/A   Overcast
6:53 AM 41.0 °F 38.0 °F 39.9 °F 96% 30.06 in 3.0 mi ESE 4.6 mph - N/A   Overcast
7:16 AM 41.0 °F 37.1 °F 39.2 °F 93% 30.05 in 2.5 mi ESE 5.8 mph - N/A   Overcast
7:39 AM 42.8 °F 37.0 °F 41.0 °F 93% 30.05 in 3.0 mi SE 10.4 mph - N/A   Mostly Cloudy
7:53 AM 43.0 °F 38.8 °F 42.1 °F 97% 30.06 in 3.0 mi SSE 6.9 mph - N/A   Mostly Cloudy
8:53 AM 46.9 °F - 45.0 °F 93% 30.06 in 5.0 mi ESE 4.6 mph - N/A   Mostly Cloudy
9:00 AM 48.2 °F - 44.6 °F 87% 30.06 in 6.0 mi ESE 4.6 mph - N/A   Overcast
9:22 AM 50.0 °F - 46.4 °F 87% 30.06 in 7.0 mi SSE 5.8 mph - N/A   Overcast
9:53 AM 52.0 °F - 48.0 °F 86% 30.05 in 10.0 mi SSE 6.9 mph - N/A   Mostly Cloudy
10:53 AM 55.9 °F - 48.9 °F 77% 30.04 in 10.0 mi SSE 8.1 mph - N/A   Overcast
11:53 AM 59.0 °F - 50.0 °F 72% 30.01 in 10.0 mi SE 5.8 mph - 0.00 in Rain Light Rain
12:53 PM 61.0 °F - 50.0 °F 67% 29.98 in 10.0 mi SSE 9.2 mph - 0.00 in   Mostly Cloudy
1:26 PM 60.8 °F - 51.8 °F 72% 29.97 in 9.0 mi SE 5.8 mph - 0.00 in Rain Light Rain
1:53 PM 59.0 °F - 52.0 °F 78% 29.96 in 10.0 mi SE 8.1 mph - 0.00 in   Overcast
2:53 PM 60.1 °F - 52.0 °F 75% 29.95 in 10.0 mi East 6.9 mph - N/A   Overcast
3:53 PM 60.1 °F - 54.0 °F 80% 29.94 in 10.0 mi SE 5.8 mph - N/A   Overcast
4:31 PM 60.8 °F - 53.6 °F 77% 29.96 in 5.0 mi SSE 6.9 mph - 0.03 in Rain , Thunderstorm Light Rain
4:42 PM 59.0 °F - 55.4 °F 88% 29.96 in 1.2 mi Variable 3.5 mph - 0.07 in Rain , Thunderstorm Heavy Thunderstorms and Rain
4:48 PM 59.0 °F - 55.4 °F 88% 29.95 in 3.0 mi Calm Calm - 0.08 in Rain , Thunderstorm Light Thunderstorms and Rain
4:53 PM 57.9 °F - 55.9 °F 93% 29.95 in 5.0 mi East 3.5 mph - 0.08 in Rain , Thunderstorm Light Rain
5:04 PM 57.2 °F - 55.4 °F 94% 29.93 in 6.0 mi East 3.5 mph - 0.00 in Rain Light Rain
5:53 PM 57.0 °F - 55.0 °F 93% 29.93 in 2.5 mi Calm Calm - 0.01 in   Clear
6:02 PM 55.4 °F - 55.4 °F 100% 29.93 in 4.0 mi NE 4.6 mph - N/A   Clear
6:37 PM 55.4 °F - 53.6 °F 94% 29.95 in 2.5 mi Calm Calm - N/A   Clear
6:44 PM 55.4 °F - 53.6 °F 94% 29.95 in 1.5 mi Calm Calm - N/A   Partly Cloudy
6:53 PM 55.0 °F - 54.0 °F 96% 29.96 in 1.0 mi Calm Calm - N/A   Scattered Clouds
7:07 PM 55.4 °F - 53.6 °F 94% 29.97 in 3.0 mi Calm Calm - N/A   Mostly Cloudy
7:14 PM 53.6 °F - 53.6 °F 100% 29.97 in 1.8 mi NW 3.5 mph - N/A   Mostly Cloudy
7:32 PM 55.4 °F - 53.6 °F 94% 29.97 in 1.2 mi Calm Calm - N/A   Overcast
7:47 PM 55.4 °F - 53.6 °F 94% 29.96 in 3.0 mi Calm Calm - N/A   Overcast
7:48 PM 55.4 °F - 53.6 °F 94% 29.97 in 3.0 mi Calm Calm - N/A   Overcast
7:53 PM 55.9 °F - 54.0 °F 93% 29.97 in 3.0 mi Calm Calm - N/A   Overcast
8:29 PM 55.4 °F - 53.6 °F 94% 29.97 in 1.8 mi ESE 3.5 mph - 0.03 in Rain Rain
8:43 PM 55.4 °F - 55.4 °F 100% 29.97 in 3.0 mi Calm Calm - 0.04 in Rain Light Rain
8:53 PM 55.9 °F - 55.0 °F 97% 29.97 in 3.0 mi Calm Calm - 0.04 in Rain Light Rain
9:15 PM 55.4 °F - 55.4 °F 100% 29.97 in 2.5 mi Calm Calm - 0.00 in   Overcast
9:23 PM 55.4 °F - 55.4 °F 100% 29.97 in 3.0 mi Calm Calm - 0.00 in   Overcast
9:37 PM 55.4 °F - 53.6 °F 94% 29.98 in 2.5 mi Calm Calm - 0.00 in   Overcast
9:48 PM 55.4 °F - 55.4 °F 100% 29.98 in 3.0 mi Calm Calm - 0.00 in   Overcast
9:53 PM 55.9 °F - 55.0 °F 97% 29.98 in 2.5 mi Calm Calm - 0.00 in   Overcast
10:23 PM 55.4 °F - 53.6 °F 94% 29.98 in 1.8 mi Calm Calm - N/A   Overcast
10:46 PM 55.4 °F - 55.4 °F 100% 29.99 in 3.0 mi Calm Calm - N/A   Overcast
10:53 PM 55.9 °F - 55.0 °F 97% 29.99 in 4.0 mi Calm Calm - N/A   Overcast
11:10 PM 55.4 °F - 53.6 °F 94% 30.01 in 2.0 mi NW 6.9 mph - N/A   Overcast
11:24 PM 57.2 °F - 55.4 °F 94% 30.01 in 3.0 mi Calm Calm - 0.00 in Rain Light Rain
11:50 PM 55.4 °F - 55.4 °F 100% 30.01 in 1.8 mi Calm Calm - 0.00 in   Overcast
11:53 PM 55.9 °F - 55.0 °F 97% 30.01 in 1.5 mi Calm Calm - 0.00 in   Overcast